sat.trackr.live / text

‹ back to catalog

STARLINK-36067

NORAD 66965 · 2025-288G

PAYLOAD ACTIVE UNKNOWN

§ Identity

Operator
Country
US
Launch date
2025-12-08
Launch site
AFETR
Launch vehicle
Mass (kg)
RCS (m²)

Purposes: comms

External: N2YO · Heavens-Above · Gunter

§ Orbital elements

Epoch: 2026-05-25T03:35:41.974368Z

Period
94.27 min
Inclination
43.0006°
Eccentricity
0.0001414
Mean motion
15.27605145 rev/d
Perigee alt
482.0 km
Apogee alt
483.9 km
Semi-major
6,861.1 km
B*
7.4829e-4
RAAN
311.4220°
Arg perigee
280.6590°
Mean anomaly
79.4102°
Rev number
2,698

§ Raw data

STARLINK-360671 66965U 25288G   26145.14979137  .00020402  00000+0  74829-3 0  99962 66965  43.0006 311.4220 0001414 280.6590  79.4102 15.27605145 26984

JSON: /api/v1/satellites/66965 · /tle

For live sub-satellite position, see the globe view (requires WebGL).

§ Visibility from observer

Set your observer location to see the next 7 days of passes ≥ 10°. The values pass through the URL so the page stays shareable.

No JS? Fill the form by hand. The geolocation button needs JavaScript.